Wind_Speed
10 9 9 9 9 9 8 8 8 8 8 7 7 7 7 7 8 8 8 8 9 9 10 10 10 11 11 11 11 10 10 11 12 12 13 13 13 13 14 15 15 16
10 9 9 9 9 9 9 9 9 9 8 8 7 7 7 7 8 8 8 8 8 9 10 10 10 11 11 11 11 10 10 11 12 13 13 13 13 13 14 15 15 16
11 11 10 11 10 10 10 9 9 9 8 8 7 7 7 7 7 8 8 8 9 9 10 11 11 11 11 11 11 10 11 11 12 13 14 13 13 14 15 15 15 16
12 12 11 11 11 10 10 10 10 9 8 8 8 7 7 7 7 8 8 9 9 10 10 11 11 11 11 11 11 11 11 11 12 14 14 13 14 15 15 15 16 17
12 12 12 12 11 11 10 10 10 10 9 8 8 7 8 8 8 8 9 9 10 10 10 11 11 11 11 11 11 11 12 12 13 15 15 14 15 15 15 16 16 17
12 12 12 12 11 11 10 11 10 10 9 8 8 8 8 8 9 9 9 10 10 11 11 12 12 12 12 12 12 12 12 12 14 15 15 15 15 15 16 16 17 17
12 12 12 12 11 11 10 10 10 10 9 9 9 9 9 9 9 10 10 11 11 12 13 13 13 13 13 12 12 12 12 12 14 15 15 15 15 16 16 16 17 18
12 12 12 12 11 10 10 10 10 10 9 10 10 10 10 10 10 10 11 12 12 13 14 14 14 14 13 12 12 13 13 13 13 14 15 15 15 16 16 17 17 17
12 12 12 12 11 11 11 11 11 10 10 10 10 10 10 11 11 11 12 12 13 14 14 15 15 15 14 13 13 13 13 13 13 14 15 15 16 16 17 17 17 18
13 13 12 12 11 11 11 11 11 11 11 11 11 11 11 11 11 12 12 13 13 14 15 16 16 16 15 15 13 13 13 13 14 14 15 15 16 17 17 18 18 18
13 13 12 12 12 12 12 12 11 11 12 12 12 12 11 11 11 12 13 14 14 15 16 16 17 17 17 15 14 13 13 13 14 15 15 16 16 17 17 18 18 18
13 13 13 12 12 12 12 12 12 12 12 12 12 12 12 12 11 12 13 14 15 16 16 17 18 18 17 16 15 14 13 13 14 15 15 15 16 17 17 18 18 18
13 12 12 12 12 13 13 12 12 12 13 12 12 12 12 11 12 12 12 13 14 16 17 18 18 19 18 17 15 13 13 13 14 15 15 16 17 17 17 18 19 18
13 12 12 13 13 13 13 13 13 13 13 13 12 12 11 11 11 12 12 13 14 15 16 18 18 18 18 18 16 13 12 14 15 15 16 17 17 17 18 19 20 19
13 13 13 13 13 14 14 14 14 14 13 13 12 12 11 11 11 12 12 13 14 14 16 18 20 18 17 17 18 16 13 13 14 15 16 17 17 18 18 20 21 20
13 13 13 13 14 14 14 14 14 13 13 13 12 12 11 11 11 12 12 13 14 15 15 18 22 20 15 15 16 16 14 13 13 15 16 17 18 18 19 20 21 21
14 14 14 14 14 13 14 13 13 13 13 12 12 12 11 11 11 11 11 13 14 16 16 19 22 20 16 15 16 16 15 13 13 14 16 17 18 18 19 21 22 23
14 14 14 14 14 14 14 13 13 13 13 12 12 12 11 11 11 10 11 12 14 16 17 20 24 20 15 15 16 16 16 14 13 14 16 17 18 18 19 21 23 25
14 14 14 14 13 13 13 13 13 13 13 12 12 12 11 11 11 10 11 11 13 16 18 22 25 21 15 14 15 15 16 14 13 14 16 17 18 18 19 21 24 26
14 14 13 13 13 13 13 13 13 13 13 12 12 11 11 11 11 11 11 12 13 15 17 22 26 23 16 13 13 13 15 14 13 13 14 16 17 17 18 20 23 25
14 14 13 12 12 12 12 12 12 12 13 12 12 11 10 10 10 11 11 12 13 14 16 20 25 25 19 15 13 13 13 13 12 12 13 14 15 17 17 18 21 23
13 13 12 12 12 11 11 11 12 12 13 12 12 11 10 10 11 11 12 12 12 13 15 18 23 25 22 17 13 12 13 12 11 12 13 13 14 17 17 15 18 22
12 12 12 11 11 11 11 11 11 11 12 12 11 11 10 10 11 12 13 13 12 12 13 16 21 24 24 21 16 12 13 12 10 11 14 14 14 16 16 15 17 22
12 11 11 10 10 10 10 11 11 11 11 11 11 10 10 10 11 11 13 14 14 13 12 13 18 23 24 22 18 14 13 13 11 11 14 15 14 15 16 15 16 20
12 11 10 10 10 10 10 10 11 11 10 10 10 10 10 9 10 10 11 12 13 14 14 12 15 20 23 23 20 17 15 13 12 12 13 15 15 15 15 16 15 17
13 11 10 10 10 10 10 10 10 10 9 9 9 9 10 10 9 10 10 10 10 12 14 14 13 17 21 22 21 18 16 14 13 13 14 14 14 15 15 16 16 17
Wind_Direction
89 92 94 93 90 86 83 83 82 79 76 72 71 64 53 45 38 37 36 31 29 24 19 16 13 10 8 5 4 2 1 359 356 352 350 348 345 344 343 341 338 334
90 92 94 93 90 87 86 84 83 81 77 73 72 68 58 48 45 42 37 31 28 23 19 17 14 12 10 8 7 7 6 2 358 355 352 351 349 347 346 344 342 340
91 91 91 91 91 90 89 87 84 81 78 75 71 67 61 53 47 42 36 31 27 23 21 18 16 15 12 10 9 10 8 4 1 358 355 354 353 351 349 347 345 343
92 92 91 91 91 91 90 89 86 82 79 74 70 67 62 55 49 42 36 31 28 25 21 18 17 15 14 13 13 12 10 7 4 0 358 358 356 354 351 349 346 345
96 94 93 91 91 92 91 89 86 84 82 77 72 66 61 55 48 42 37 32 29 26 22 20 18 15 15 15 16 14 11 9 6 3 1 359 357 355 352 349 348 346
97 95 93 91 91 91 91 91 90 88 84 79 73 66 61 56 50 44 40 36 33 30 25 21 19 18 16 16 18 17 14 10 6 5 3 0 357 356 353 351 349 348
99 97 95 93 93 91 90 92 92 90 85 80 75 69 64 59 53 48 43 40 38 33 29 24 22 19 16 16 17 15 15 13 8 6 5 1 358 356 355 354 351 350
101 97 97 97 94 89 88 90 91 90 87 84 78 71 67 62 56 52 47 45 41 35 31 27 23 20 16 15 14 12 14 14 9 7 5 2 0 358 356 356 353 352
103 100 100 99 93 88 87 88 88 89 89 86 82 76 71 65 60 56 51 46 42 37 33 27 24 21 17 14 13 11 12 11 10 8 5 3 2 359 358 357 355 354
106 104 103 99 93 90 88 88 87 88 87 85 83 79 74 69 65 60 54 48 43 38 33 28 23 19 16 15 14 11 10 10 10 8 7 7 4 1 1 359 358 356
109 108 105 99 95 92 90 88 88 89 87 85 83 80 76 72 67 61 56 51 45 39 33 28 23 18 15 15 12 10 11 12 12 10 9 9 7 5 3 2 0 358
111 109 104 101 98 95 91 90 90 89 87 85 84 81 78 75 70 64 58 53 47 41 34 28 22 19 17 15 10 10 14 15 14 12 11 11 10 9 7 5 3 360
111 108 105 102 99 97 94 92 90 89 87 84 83 82 80 76 72 67 61 55 50 43 36 29 23 22 22 18 12 12 17 19 16 14 13 14 12 10 9 7 4 1
111 108 106 104 102 99 96 93 91 88 86 84 82 80 78 76 74 70 64 57 51 45 38 31 27 26 28 25 17 13 14 15 18 17 16 16 14 12 11 8 5 2
114 112 109 107 105 101 97 95 92 88 86 85 83 81 78 77 74 70 65 58 52 47 39 33 30 31 34 31 24 20 14 11 18 21 18 17 16 13 12 9 5 0
120 117 114 110 107 103 100 97 93 90 88 86 84 82 79 76 74 70 65 59 52 46 40 34 31 33 42 44 37 31 22 14 19 23 21 20 17 14 12 8 5 0
123 120 117 113 110 106 103 100 96 93 90 87 84 81 78 74 73 71 65 61 54 47 41 34 30 34 46 49 45 39 30 22 22 25 24 22 19 15 12 8 4 1
124 122 119 115 113 110 106 103 101 97 92 88 84 79 76 73 71 71 67 63 56 48 42 34 30 34 44 47 46 44 37 28 24 28 26 23 20 16 13 10 5 1
123 120 118 117 114 112 110 106 103 99 94 90 86 80 76 73 70 69 66 63 58 50 43 34 30 33 41 45 45 44 40 34 28 30 29 23 20 17 14 12 7 2
122 120 119 117 115 113 111 108 104 102 98 93 89 83 78 75 71 68 65 63 59 53 45 36 31 32 39 45 45 42 41 40 34 31 30 25 21 19 17 13 9 7
124 123 121 119 117 114 111 109 106 104 100 95 92 87 81 77 72 68 66 65 61 57 49 38 32 33 38 44 45 43 42 42 36 29 28 28 24 22 18 15 14 14
124 124 122 120 118 114 111 110 107 104 101 98 96 92 87 82 76 70 66 65 63 59 52 41 33 33 38 41 44 43 39 35 32 27 24 26 26 22 21 24 26 23
123 123 122 121 119 115 114 112 107 103 102 101 101 99 94 88 82 74 68 65 62 59 55 44 34 33 37 40 42 41 31 21 22 26 24 24 25 22 25 30 26 22
122 121 120 121 120 119 116 111 107 103 101 102 103 103 100 94 89 83 75 69 63 58 56 49 37 33 36 39 40 39 30 17 15 23 23 22 23 20 23 26 17 13
120 121 124 125 124 120 115 110 107 104 104 107 108 106 102 96 93 91 84 77 70 61 55 53 43 34 34 37 37 37 33 23 16 17 17 19 21 18 18 20 15 10
126 128 129 129 124 118 112 107 105 105 107 111 108 105 102 97 94 93 88 82 78 67 58 55 48 37 33 34 33 33 32 28 20 11 5 8 16 17 16 16 15 11
Height
824 825 825 826 827 828 829 829 830 831 832 833 834 835 835 835 835 835 835 834 834 833 832 831 831 830 829 828 827 826 826 825 824 823 822 821 820 819 818 816 815 814
825 826 826 827 828 829 830 831 832 832 833 834 835 835 836 836 836 836 836 835 835 834 833 832 831 830 830 829 828 827 826 826 825 824 823 821 820 819 818 817 816 814
826 827 827 828 829 830 831 832 833 833 834 835 836 837 837 837 837 837 836 836 835 835 834 833 832 831 830 829 828 828 827 826 825 824 823 822 821 820 818 817 816 815
827 828 828 829 830 831 831 832 834 834 836 837 837 838 838 838 838 838 837 837 836 836 835 834 833 832 831 830 829 828 827 827 826 825 823 822 821 820 819 818 817 815
829 829 830 830 831 832 833 833 835 836 837 838 838 839 839 839 839 839 839 838 837 837 836 835 834 832 831 830 829 829 828 827 826 825 824 822 822 820 819 818 817 816
830 830 831 832 833 834 834 835 836 837 838 839 839 840 840 840 841 840 840 840 839 838 837 836 835 833 832 831 830 829 828 828 827 826 824 823 822 821 820 819 818 816
832 832 833 834 835 836 836 837 837 838 839 840 840 841 841 842 842 842 842 841 840 839 838 837 836 834 833 832 831 830 829 829 828 826 825 824 823 822 821 820 818 817
833 834 834 835 836 837 838 838 839 840 840 841 842 842 843 843 843 843 843 842 842 841 839 838 837 835 834 833 832 831 830 829 828 827 826 825 824 823 822 821 819 818
834 835 836 837 838 839 839 840 840 841 842 842 843 844 844 845 845 845 845 844 843 842 841 840 838 837 836 834 833 832 831 830 829 828 827 826 825 824 822 822 820 819
835 836 838 838 839 840 841 841 842 842 843 843 844 845 845 846 846 846 846 845 844 844 842 841 840 838 837 835 835 834 833 832 831 830 828 827 826 825 824 823 821 820
837 838 839 840 841 842 842 843 843 844 844 844 845 846 846 847 847 847 847 847 846 845 844 842 841 839 837 836 836 835 834 833 832 831 830 829 828 827 825 824 823 822
839 840 841 841 842 843 843 844 845 845 845 846 846 847 847 848 848 849 848 848 847 846 845 844 842 840 838 837 837 836 836 835 834 833 831 830 829 828 827 826 825 823
841 842 842 843 843 844 845 845 846 846 846 847 847 848 849 849 850 850 850 849 849 848 846 845 843 841 839 838 838 838 837 836 835 834 833 832 831 830 829 827 826 825
842 843 844 844 845 845 846 846 847 847 847 848 849 849 850 851 851 851 851 851 850 849 848 846 844 842 841 839 839 839 838 837 836 835 834 833 832 831 829 828 827 825
843 844 845 846 846 846 847 847 847 848 848 849 850 851 852 852 852 852 852 852 851 850 849 847 845 844 842 841 840 839 838 838 838 837 836 835 833 832 831 830 828 826
844 845 846 847 847 847 848 848 848 849 850 851 852 853 853 853 854 854 853 853 853 852 850 849 846 845 844 842 841 840 839 839 839 838 837 836 835 833 832 831 829 828
844 845 846 847 848 848 849 849 850 850 851 853 853 854 854 854 855 855 855 855 854 853 851 850 848 846 845 844 842 842 840 839 840 839 838 837 836 835 833 832 830 828
845 846 847 847 848 849 849 850 851 851 853 854 854 855 855 856 856 856 856 855 855 854 852 851 849 847 846 845 843 843 841 840 840 840 839 839 838 836 835 833 831 829
845 847 848 848 849 850 850 851 851 852 853 854 855 856 856 857 858 857 857 856 855 854 853 851 850 849 848 846 845 844 842 841 841 841 840 840 839 837 836 835 832 830
846 848 849 850 850 851 852 852 852 852 853 854 855 857 858 859 859 858 858 857 856 855 854 853 852 850 849 847 846 845 843 842 842 842 841 840 839 838 837 835 833 831
846 849 850 851 852 852 853 853 853 853 853 854 855 857 859 860 860 859 859 858 856 856 855 855 853 852 850 848 847 845 844 843 843 843 841 840 839 838 837 835 834 832
848 850 851 852 853 853 854 854 854 853 853 854 855 858 859 860 861 860 859 858 857 857 857 856 855 853 851 849 848 846 845 844 844 843 842 841 839 838 836 835 834 832
850 851 853 853 854 855 855 855 855 854 854 855 856 858 860 861 861 860 860 859 858 858 858 858 857 855 853 851 849 848 846 845 845 844 842 841 840 838 837 835 834 833
851 853 854 855 855 856 856 856 855 855 855 856 857 859 860 861 861 861 861 860 860 859 859 859 858 857 855 853 851 850 848 847 846 845 843 842 840 839 838 836 835 833
852 854 855 856 857 856 856 856 856 856 856 857 858 859 860 860 861 861 861 861 861 861 860 860 860 858 856 855 854 852 850 848 848 847 844 843 841 840 839 837 836 834
852 854 856 857 857 857 856 856 856 857 857 858 859 859 860 861 861 862 862 862 862 862 861 861 861 860 858 857 856 855 852 850 850 848 846 844 843 841 840 838 837 835